Simultaneous Nadir Overpasses (SNOs) Predictions

Prediction of SNOs between METOP-B and TERRA Satellite Orbit:

Table of predicted SNOs for the next 14.0 days since TLE Epoch: 6/8/2024
Index Date (METOP-B) Time (METOP-B) Lat,Lon (METOP-B) SZA (METOP-B ) Date (TERRA) Time (TERRA) Lat,Lon (TERRA) SZA (TERRA ) Distance(km) Time Diff (sec)
1 06/08/2024 06:03:50 80.19, 110.41 58.00 06/08/2024 06:03:57 80.18, 110.28 57.98 2.72 7
2 06/08/2024 06:54:29 -80.25, -81.60 121.91 06/08/2024 06:53:17 -80.26, -81.43 121.92 3.23 72
3 06/10/2024 20:34:01 80.10,-108.13 57.63 06/10/2024 20:34:40 80.09,-108.20 57.63 1.69 39
4 06/10/2024 21:24:37 -80.25, 60.80 122.13 06/10/2024 21:23:58 -80.24, 60.70 122.15 2.09 39
5 06/13/2024 11:04:13 79.99, 33.27 57.30 06/13/2024 11:05:23 80.00, 33.37 57.33 2.19 70
6 06/13/2024 11:54:49 -80.15,-157.80 122.45 06/13/2024 11:54:41 -80.16,-157.71 122.45 1.85 8
7 06/16/2024 02:25:00 -80.07, -16.18 122.70 06/16/2024 02:25:23 -80.08, -16.08 122.68 1.98 23
8 06/16/2024 03:15:34 80.24, 152.96 57.58 06/16/2024 03:14:38 80.24, 152.96 57.56 0.25 56
9 06/18/2024 16:55:09 -80.04, 125.96 122.82 06/18/2024 16:56:03 -80.03, 125.88 122.82 1.73 54
10 06/18/2024 17:45:45 80.15, -65.55 57.36 06/18/2024 17:45:19 80.16, -65.41 57.37 2.75 26
11 06/21/2024 08:15:53 80.11, 76.48 57.27 06/21/2024 08:15:57 80.12, 76.57 57.29 1.93 4



Historial Predications of SNOs between METOP-B and TERRA
